Weather History for KOUN - May, 2013

Change the Weather History Date:

Sunday, May 5, 2013

  Actual Average Record
Temperature  
Mean Temperature 52 °F -  
Max Temperature 60 °F 77 °F 93 °F (2014)
Min Temperature 44 °F 57 °F 41 °F (1957)
Degree Days  
Heating Degree Days 13    
Growing Degree Days 2 (Base 50)    
Moisture  
Dew Point 45 °F    
Average Humidity 80    
Maximum Humidity 100    
Minimum Humidity 63    
Precipitation  
Precipitation 0.00 in - - ()
Sea Level Pressure  
Sea Level Pressure 30.12 in    
Wind  
Wind Speed 10 mph (NNW)    
Max Wind Speed 16 mph    
Max Gust Speed 20 mph    
Visibility 10 miles    
Events      
Averages and records for this station are not official NWS values.
T = Trace of Precipitation, MM = Missing Value Source: NWS Daily Summary

Daily Weather History Graph

Daily Weather History Graph

Search for Another Location

Airport or City:

Trip Planner

Search our weather history database for the weather conditions in past years. The results will help you decide how hot, cold, wet, or windy it might be!

Date:

Astronomy

May. 05, 2013 Rise Set
Actual Time 6:34 AM CDT 8:19 PM CDT
Civil Twilight 6:06 AM CDT 8:46 PM CDT
Nautical Twilight 5:33 AM CDT 9:20 PM CDT
Astronomical Twilight 4:58 AM CDT 9:55 PM CDT
Moon 3:56 AM CDT 4:28 PM CDT
Length of Visible Light 14h 40m
Length of Day
13h 45m
Waning Crescent, 18% of the Moon is Illuminated
May 5
Waning Crescent
May 9
New
May 17
First Quarter
May 24
Full
May 31
Last Quarter

Hourly Weather History & Observations

Time (CDT) Temp. Windchill Dew Point Humidity Pressure Visibility Wind Dir Wind Speed Gust Speed Precip Events Conditions
12:15 AM 44.6 °F 39.7 °F 41.0 °F 87% 30.09 in 10.0 mi North 9.2 mph 12.7 mph N/A   Overcast
12:35 AM 44.6 °F 38.1 °F 41.0 °F 87% 30.09 in 10.0 mi North 13.8 mph - N/A   Overcast
12:55 AM 44.6 °F 38.8 °F 41.0 °F 87% 30.09 in 10.0 mi North 11.5 mph - N/A   Overcast
1:15 AM 44.6 °F 38.8 °F 41.0 °F 87% 30.09 in 10.0 mi North 11.5 mph - N/A   Overcast
1:35 AM 44.6 °F 38.8 °F 41.0 °F 87% 30.09 in 10.0 mi North 11.5 mph - N/A   Overcast
1:55 AM 44.6 °F 38.8 °F 41.0 °F 87% 30.09 in 10.0 mi North 11.5 mph - N/A   Overcast
2:15 AM 44.6 °F 38.8 °F 41.0 °F 87% 30.09 in 10.0 mi North 11.5 mph - N/A   Overcast
2:35 AM 44.6 °F 38.8 °F 41.0 °F 87% 30.09 in 10.0 mi North 11.5 mph - N/A   Overcast
2:55 AM 44.6 °F 38.4 °F 41.0 °F 87% 30.09 in 10.0 mi North 12.7 mph - N/A   Overcast
3:15 AM 44.6 °F 38.1 °F 41.0 °F 87% 30.09 in 10.0 mi North 13.8 mph 17.3 mph N/A   Overcast
3:35 AM 44.6 °F 38.8 °F 39.2 °F 81% 30.09 in 10.0 mi North 11.5 mph - N/A   Overcast
3:55 AM 44.6 °F 37.8 °F 41.0 °F 87% 30.10 in 10.0 mi North 15.0 mph 18.4 mph N/A   Overcast
4:15 AM 44.6 °F 38.4 °F 41.0 °F 87% 30.10 in 10.0 mi North 12.7 mph - N/A   Overcast
4:35 AM 44.6 °F 38.8 °F 41.0 °F 87% 30.10 in 10.0 mi NNW 11.5 mph - N/A   Overcast
4:55 AM 44.6 °F 39.7 °F 41.0 °F 87% 30.10 in 10.0 mi NNW 9.2 mph - N/A   Overcast
5:15 AM 44.6 °F 38.8 °F 41.0 °F 87% 30.11 in 10.0 mi NNW 11.5 mph - N/A   Overcast
5:35 AM 44.6 °F 39.2 °F 41.0 °F 87% 30.11 in 10.0 mi NNW 10.4 mph - N/A   Overcast
5:55 AM 44.6 °F 39.2 °F 41.0 °F 87% 30.11 in 10.0 mi NNW 10.4 mph - N/A   Overcast
6:15 AM 44.6 °F 38.8 °F 41.0 °F 87% 30.11 in 10.0 mi NNW 11.5 mph - N/A   Overcast
6:35 AM 44.6 °F 37.4 °F 41.0 °F 87% 30.12 in 10.0 mi NNW 16.1 mph 19.6 mph N/A   Overcast
6:55 AM 44.6 °F 38.8 °F 41.0 °F 87% 30.13 in 10.0 mi NNW 11.5 mph 17.3 mph N/A   Overcast
7:15 AM 44.6 °F 39.2 °F 41.0 °F 87% 30.14 in 10.0 mi North 10.4 mph - N/A   Overcast
7:35 AM 44.6 °F 39.7 °F 41.0 °F 87% 30.15 in 10.0 mi North 9.2 mph - N/A   Overcast
7:55 AM 44.6 °F 38.1 °F 41.0 °F 87% 30.15 in 10.0 mi NNW 13.8 mph - N/A   Overcast
8:15 AM 46.4 °F 40.4 °F 42.8 °F 87% 30.16 in 10.0 mi NNW 13.8 mph - N/A   Overcast
8:35 AM 46.4 °F 40.4 °F 42.8 °F 87% 30.16 in 10.0 mi NNW 13.8 mph - N/A   Overcast
8:55 AM 46.4 °F 40.4 °F 42.8 °F 87% 30.17 in 10.0 mi NNW 13.8 mph - N/A   Overcast
9:15 AM 48.2 °F - 42.8 °F 82% 30.17 in 10.0 mi NNW 13.8 mph - N/A   Overcast
9:35 AM 50.0 °F - 42.8 °F 76% 30.17 in 10.0 mi NNW 12.7 mph - N/A   Overcast
9:55 AM 50.0 °F - 44.6 °F 82% 30.17 in 10.0 mi NNW 12.7 mph - N/A   Overcast
10:15 AM 51.8 °F - 44.6 °F 76% 30.17 in 10.0 mi NW 8.1 mph - N/A   Overcast
10:35 AM 51.8 °F - 44.6 °F 76% 30.17 in 10.0 mi NNW 12.7 mph - N/A   Overcast
10:55 AM 51.8 °F - 44.6 °F 76% 30.18 in 10.0 mi NNW 11.5 mph - N/A   Overcast
11:15 AM 53.6 °F - 44.6 °F 72% 30.17 in 10.0 mi NNW 8.1 mph - N/A   Overcast
11:35 AM 55.4 °F - 46.4 °F 72% 30.18 in 10.0 mi NNW 10.4 mph - N/A   Overcast
11:55 AM 55.4 °F - 44.6 °F 67% 30.18 in 10.0 mi NW 9.2 mph 18.4 mph N/A   Overcast
12:15 PM 55.4 °F - 46.4 °F 72% 30.18 in 10.0 mi NNW 10.4 mph - N/A   Overcast
12:35 PM 57.2 °F - 46.4 °F 67% 30.17 in 10.0 mi NW 9.2 mph 16.1 mph N/A   Overcast
1:15 PM 57.2 °F - 46.4 °F 67% 30.16 in 10.0 mi NNW 10.4 mph - N/A   Overcast
1:35 PM 57.2 °F - 46.4 °F 67% 30.16 in 10.0 mi NNW 12.7 mph 16.1 mph N/A   Overcast
1:55 PM 57.2 °F - 46.4 °F 67% 30.15 in 10.0 mi NNW 9.2 mph - N/A   Overcast
2:15 PM 59.0 °F - 48.2 °F 67% 30.15 in 10.0 mi NNW 8.1 mph - N/A   Overcast
2:35 PM 59.0 °F - 48.2 °F 67% 30.15 in 10.0 mi NW 8.1 mph - N/A   Overcast
2:55 PM 59.0 °F - 48.2 °F 67% 30.14 in 10.0 mi North 4.6 mph - N/A   Overcast
3:15 PM 60.8 °F - 50.0 °F 68% 30.13 in 10.0 mi North 11.5 mph - N/A   Overcast
3:35 PM 59.0 °F - 48.2 °F 67% 30.12 in 10.0 mi North 5.8 mph - N/A   Overcast
3:55 PM 59.0 °F - 48.2 °F 67% 30.12 in 10.0 mi NNW 6.9 mph - N/A   Overcast
4:15 PM 60.8 °F - 50.0 °F 68% 30.11 in 10.0 mi North 6.9 mph - N/A   Overcast
4:35 PM 60.8 °F - 48.2 °F 63% 30.11 in 10.0 mi NW 6.9 mph - N/A   Overcast
4:55 PM 60.8 °F - 48.2 °F 63% 30.10 in 10.0 mi North 5.8 mph - N/A   Overcast
5:15 PM 59.0 °F - 50.0 °F 72% 30.11 in 10.0 mi NNW 6.9 mph - N/A   Overcast
5:35 PM 60.8 °F - 50.0 °F 68% 30.10 in 10.0 mi NNW 9.2 mph - N/A   Overcast
5:55 PM 60.8 °F - 50.0 °F 68% 30.10 in 10.0 mi NNW 8.1 mph - N/A   Overcast
6:15 PM 60.8 °F - 50.0 °F 68% 30.10 in 10.0 mi NNW 6.9 mph - N/A   Overcast
6:35 PM 60.8 °F - 50.0 °F 68% 30.10 in 10.0 mi North 4.6 mph - N/A   Overcast
7:15 PM 59.0 °F - 50.0 °F 72% 30.10 in 10.0 mi North 5.8 mph - N/A   Scattered Clouds
7:35 PM 57.2 °F - 50.0 °F 77% 30.09 in 10.0 mi North 4.6 mph - N/A   Clear
7:55 PM 57.2 °F - 50.0 °F 77% 30.09 in 10.0 mi North 4.6 mph - N/A   Clear
8:15 PM 55.4 °F - 50.0 °F 82% 30.10 in 10.0 mi Calm Calm - N/A   Clear
8:35 PM 55.4 °F - 50.0 °F 82% 30.10 in 10.0 mi Calm Calm - N/A   Clear
8:55 PM 55.4 °F - 50.0 °F 82% 30.10 in 10.0 mi Calm Calm - N/A   Clear
9:35 PM 53.6 °F - 50.0 °F 88% 30.11 in 10.0 mi Calm Calm - N/A   Clear
9:55 PM 53.6 °F - 50.0 °F 88% 30.11 in 10.0 mi NE 3.5 mph - N/A   Clear
10:15 PM 51.8 °F - 50.0 °F 94% 30.11 in 10.0 mi Calm Calm - N/A   Clear
10:35 PM 50.0 °F - 48.2 °F 94% 30.12 in 10.0 mi Calm Calm - N/A   Clear
10:55 PM 50.0 °F - 50.0 °F 100% 30.11 in 10.0 mi Calm Calm - N/A   Clear
11:15 PM 50.0 °F - 50.0 °F 100% 30.11 in 10.0 mi Calm Calm - N/A   Clear
11:35 PM 51.8 °F - 48.2 °F 88% 30.11 in 10.0 mi Calm Calm - N/A   Clear
11:55 PM 48.2 °F - 46.4 °F 93% 30.11 in 10.0 mi Calm Calm - N/A   Clear